Location: Newark
(54.6833°N, 25.2833°E)
Time: 09:14:02
(UTC+00:00)

Tiros 1 despin weight - Pass Details

Date: 21 November 2019
Orbit: 594 x 642 km, 48.2° (Epoch: 06 December)

Event Time Altitude Azimuth Distance (km) Brightness Sun altitude
Rises 11:29:10 0° 223° (SW) 2,822 ? 13.3°
Reaches altitude 10° 11:31:48 10° 209° (SSW) 1,924 ? 13.1°
Maximum altitude 11:35:17 23° 157° (SSE) 1,274 ? 12.9°
Drops below altitude 10° 11:38:47 10° 104° (ESE) 1,939 ? 12.7°
Sets 11:41:26 0° 91° (E) 2,850 ? 12.6°
